Printer-friendly version

IAU Minor Planet Center

Minor Planet Center

MPEC 2007-F18 : 2007 EO88

The following Minor Planet Electronic Circular may be linked-to from your own Web pages, but must not otherwise be redistributed electronically.


Read MPEC 2007-F17 Read MPEC 2007-F19


M.P.E.C. 2007-F18                                Issued 2007 Mar. 16, 19:57 UT

     The Minor Planet Electronic Circulars contain information on unusual
         minor planets and routine data on comets.  They are published
   on behalf of Commission 20 of the International Astronomical Union by the
          Minor Planet Center, Smithsonian Astrophysical Observatory,
                          Cambridge, MA 02138, U.S.A.

             Prepared using the Tamkin Foundation Computer Network

                              MPC@CFA.HARVARD.EDU
          URL http://cfa-www.harvard.edu/iau/mpc.html  ISSN 1523-6714

                                   2007 EO88

Observations:
     K07E88O* C2007 03 15.37750 11 53 18.60 +12 02 51.3          18.2 V EF018703
     K07E88O  C2007 03 15.38700 11 53 12.48 +12 02 12.2          18.9 V EF018703
     K07E88O  C2007 03 15.39649 11 53 06.25 +12 01 31.4          18.9 V EF018703
     K07E88O  C2007 03 15.40598 11 52 59.95 +12 00 50.9          18.8 V EF018703
     K07E88O  C2007 03 15.46622 11 52 20.52 +11 56 20.0                 EF018703
     K07E88O  C2007 03 15.46675 11 52 20.16 +11 56 15.2                 EF018703
     K07E88O  C2007 03 15.46727 11 52 19.90 +11 56 13.8          19.0 V EF018703
     K07E88O  C2007 03 15.46780 11 52 19.53 +11 56 11.9          18.9 V EF018703
     K07E88O  C2007 03 15.51108 11 51 52.05 +11 52 46.2          18.7 V EF018703
     K07E88O  C2007 03 15.51173 11 51 51.55 +11 52 42.6          18.9 V EF018703
     K07E88O  C2007 03 15.51238 11 51 51.15 +11 52 39.7          19.1 V EF018703
     K07E88O  C2007 03 15.51304 11 51 50.76 +11 52 36.8          19.0 V EF018703
     K07E88O  C2007 03 16.00865 11 46 42.10 +11 08 28.0          18.3 R EF018246
     K07E88O  C2007 03 16.00913 11 46 41.71 +11 08 25.1                 EF018246
     K07E88O  C2007 03 16.00953 11 46 41.27 +11 08 22.8                 EF018246
     K07E88O  C2007 03 16.01008 11 46 40.85 +11 08 19.5                 EF018246
     K07E88O  C2007 03 16.01122 11 46 39.82 +11 08 12.4                 EF018246
     K07E88O  C2007 03 16.01193 11 46 39.14 +11 08 07.1                 EF018246
     K07E88O  C2007 03 16.01871 11 46 32.87 +11 07 44.6                 EF018595
     K07E88O  C2007 03 16.02108 11 46 30.73 +11 07 29.1          18.0 V EF018595
     K07E88O  C2007 03 16.02412 11 46 27.92 +11 07 11.2                 EF018595
     K07E88O  C2007 03 16.17151 11 44 58.35 +10 52 28.8          18.0 R EF018651
     K07E88O  C2007 03 16.17427 11 44 55.57 +10 52 09.9          18.3 R EF018651
     K07E88O  C2007 03 16.17703 11 44 52.96 +10 51 52.4          17.9 R EF018651
     K07E88O  C2007 03 16.22637 11 44 02.72 +10 46 14.9          18.2 V EF018703
     K07E88O  C2007 03 16.22691 11 44 02.18 +10 46 11.5          18.6 V EF018703
     K07E88O  C2007 03 16.22744 11 44 01.60 +10 46 07.8          18.3 V EF018703
     K07E88O  C2007 03 16.22798 11 44 01.03 +10 46 04.4          18.3 V EF018703
     K07E88O  C2007 03 16.28725 11 42 54.33 +10 39 01.0          18.5 R EF018448
     K07E88O  C2007 03 16.29029 11 42 50.79 +10 38 37.9          18.3 R EF018448
     K07E88O  C2007 03 16.29333 11 42 47.36 +10 38 14.3          18.2 R EF018448
     K07E88O  C2007 03 16.29751 11 42 42.50 +10 37 42.7          18.6 R EF018448
     K07E88O 5C2007 03 16.32006 11 42 22.51 +10 34 33.7          18.0 R EF018673
     K07E88O 5C2007 03 16.32182 11 42 20.60 +10 34 20.5                 EF018673
     K07E88O 5C2007 03 16.34097 11 41 58.35 +10 31 51.3                 EF018673
     K07E88O 5C2007 03 16.34476 11 41 53.87 +10 31 20.2                 EF018673
     K07E88O  C2007 03 16.37164 11 41 12.58 +10 26 52.8          18.4 R EF018734
     K07E88O  C2007 03 16.37216 11 41 11.94 +10 26 48.2          18.6 R EF018734
     K07E88O  C2007 03 16.37323 11 41 10.71 +10 26 39.2          18.6 R EF018734
     K07E88O  C2007 03 16.37427 11 41 09.53 +10 26 30.7          18.7 R EF018734
     K07E88O  C2007 03 16.37530 11 41 08.33 +10 26 22.1          18.2 R EF018734

Observer details:
246 Klet Observatory-KLENOT.  Observer M. Tichy.  1.06-m KLENOT Telescope
    + CCD.
448 Desert Moon Observatory.  Observer B. L. Stevens.  0.3-m
    Schmidt-Cassegrain + CCD.
595 Farra d'Isonzo.  Observers L. Bittesini, G. Lombardi, E. Pettarin,
    F. Piani.  Measurers G. Lombardi, E. Pettarin.  0.40-m f/4.5 reflector
    + CCD.
651 Grasslands Observatory, Tucson.  Observer J. E. McGaha.  0.62-m f/5.1
    Newtonian reflector + CCD.
673 Table Mountain Observatory, Wrightwood.  Observer D. Mayes.  0.6-m
    reflector + CCD.
703 Catalina Sky Survey.  Observer R. E. Hill.  Measurers E. C. Beshore,
    E. J. Christensen, G. J. Garradd, A. R. Gibbs, A. D. Grauer, R. E. Hill,
    R. A. Kowalski, S. M. Larson, R. H. McNaught.  0.68-m Schmidt + CCD.
734 Farpoint Observatory.  Observer D. Tibbets.  Measurer G. Hug.  0.7-m
    reflector + CCD.

Orbital elements:
2007 EO88                                                Earth MOID = 0.0017 AU
Epoch 2007 Apr. 10.0 TT = JDT 2454200.5                 MPC
M 326.89674              (2000.0)            P               Q
n   0.82002719     Peri.  270.45332     -0.05639532     +0.99838583
a   1.1304479      Node   356.29360     -0.86961545     -0.05243103
e   0.3380373      Incl.    5.97609     -0.49049825     -0.02183383
P   1.20           H   26.7           G   0.15           U   7
Residuals in seconds of arc
070315 703  1.5-  0.6-    070316 246  0.4-  0.5+    070316 448  1.6+  0.5+
070315 703  0.7+  0.5+    070316 246  0.7+  0.6+    070316 448  0.1+  0.1+
070315 703  1.2+  0.3+    070316 246  0.7+  0.6+    070316 448  0.3+  0.6-
070315 703  0.6+  0.9+    070316 246  0.2+  0.2-    070316 448  1.3-  0.7-
070315 703  0.2-  1.1+    070316 595  0.5-  0.4-    070316 673  1.1-  0.6+
070315 703  0.4-  1.2-    070316 595  0.1-  0.9-    070316 673  0.6+  0.9+
070315 703  0.7+  0.2-    070316 595  0.4-  0.5+    070316 673  0.5+  1.0+
070315 703  0.3+  0.3+    070316 651  0.8+  0.1+    070316 673  0.1-  0.1-
070315 703  0.5+  0.1-    070316 651  0.7-  0.9-    070316 734  0.3+  0.2+
070315 703  0.9-  0.6-    070316 651  0.5+  0.4-    070316 734  0.3-  0.1-
070315 703  0.8-  0.4-    070316 703  0.5-  0.8-    070316 734  0.2-  0.1-
070315 703  0.5-  0.1-    070316 703  0.1-  0.4-    070316 734  0.1+  0.1+
070316 246  0.1+  0.2+    070316 703  0.4-  0.5-    070316 734  0.1-  0.1+
070316 246  0.7+  0.3+    070316 703  0.4-  0.1-

Ephemeris:
2007 EO88                a,e,i = 1.13, 0.34, 6                   q = 0.7483
Date    TT    R. A. (2000) Decl.     Delta      r     Elong.  Phase     V
2007 03 11    12 10.24   +14 10.8    0.0499   1.041   164.5    14.7    21.1
2007 03 12    12 08.34   +13 57.1    0.0435   1.036   165.4    14.0    20.8
2007 03 13    12 05.74   +13 38.1    0.0372   1.030   166.4    13.1    20.4
2007 03 14    12 02.04   +13 10.6    0.0308   1.024   167.5    12.1    19.9
2007 03 15    11 56.40   +12 28.0    0.0245   1.018   168.9    10.8    19.4
2007 03 16    11 46.91   +11 14.3    0.0182   1.013   170.7     9.2    18.6
2007 03 17    11 27.80   +08 40.5    0.0120   1.007   171.7     8.2    17.7
2007 03 18    10 31.96   +00 43.9    0.00618  1.001   160.8    19.1    16.6
2007 03 19    05 33.46   -29 07.5    0.00340  0.995    85.5    94.3    17.7
2007 03 20    01 55.24   -24 38.3    0.00806  0.989    37.6   142.1    23.3
2007 03 21    01 12.78   -21 03.1    0.0141   0.984    27.6   152.0    26.2

Kyle E. Smalley              (C) Copyright 2007 MPC           M.P.E.C. 2007-F18

Read MPEC 2007-F17 Read MPEC 2007-F19


Our Web policy. Index to the CBAT/MPC/ICQ pages.


Valid HTML 4.01!